Hourly Data Report for July 20, 2021

WRIGLEY A
NORTHWEST TERRITORIES
Current Station Operator: NAVCAN

63°12'35.000" N
123°26'12.000" W
149.70 m
2204005
YWY

Download Data

Hourly Data (July 2021)
Hourly Data Report for July 20, 2021
TIME
LST
Temp Definition
°C
Dew Point Definition
°C
Rel Hum Definition
%
Precip. Amount Definition
mm

Wind Dir Definition
10's deg

Wind Spd Definition
km/h
Visibility Definition
km
Stn Press Definition
kPa
Hmdx Definition


Wind Chill Definition


Weather Definition


00:00 15.0 13.2 89 LegendMM 11 3 LegendMM 100.07     LegendNANA
01:00 13.4 11.9 91 LegendMM 6 3 LegendMM 100.07     LegendNANA
02:00 12.4 11.6 94 LegendMM 9 3 LegendMM 100.08     LegendNANA
03:00 11.4 10.8 96 LegendMM 9 2 LegendMM 100.09     LegendNANA
04:00 11.0 10.4 96 LegendMM 16 1 LegendMM 100.09     LegendNANA
05:00 10.4 9.7 96 LegendMM 13 1 LegendMM 100.09     LegendNANA
06:00 11.8 10.9 94 LegendMM 5 3 LegendMM 100.07     LegendNANA
07:00 14.4 12.4 88 LegendMM 5 1 LegendMM 100.05     LegendNANA
08:00 15.6 13.3 86 LegendMM 20 3 LegendMM 100.03     LegendNANA
09:00 18.1 12.1 68 LegendMM 14 7 LegendMM 99.98     LegendNANA
10:00 20.2 11.1 55 LegendMM 14 14 LegendMM 99.93     LegendNANA
11:00 21.6 8.3 42 LegendMM 14 14 LegendMM 99.88     LegendNANA
12:00 23.3 9.9 42 LegendMM 14 15 LegendMM 99.84 25   LegendNANA
13:00 23.9 10.9 43 LegendMM 14 17 LegendMM 99.77 26   LegendNANA
14:00 25.1 11.1 41 LegendMM 15 13 LegendMM 99.69 27   LegendNANA
15:00 25.6 10.3 38 LegendMM 14 14 LegendMM 99.62 27   LegendNANA
16:00 26.3 9.0 33 LegendMM 15 17 LegendMM 99.55 27   LegendNANA
17:00 26.6 8.6 32 LegendMM 13 11 LegendMM 99.49 27   LegendNANA
18:00 25.9 9.9 36 LegendMM 16 16 LegendMM 99.45 27   LegendNANA
19:00 25.9 10.9 38 LegendMM 15 15 LegendMM 99.40 28   LegendNANA
20:00 25.5 11.0 40 LegendMM 14 11 LegendMM 99.36 27   LegendNANA
21:00 24.2 12.0 46 LegendMM 14 12 LegendMM 99.34 26   LegendNANA
22:00 23.2 11.3 46 LegendMM 13 11 LegendMM 99.32 25   LegendNANA
23:00 21.8 11.2 50 LegendMM 12 10 LegendMM 99.33     LegendNANA

Notes on Data Quality.

Legend

  • E = Estimated
  • M = Missing
  • NA = Not Available*
  • [empty] = Indicates an unobserved value
Date modified: